Location: Unspecified
(0.0000°N, 0.0000°E)
Time: 09:09:02
(UTC+00:00)

ISS - Visible Passes

Search period start: 07 August 2020 00:00
Search period end: 17 August 2020 00:00
Orbit: 418 x 420 km, 51.6° (Epoch: 08 August)

Date Brightness Start Highest point End Pass type
(mag) Time Alt. Az. Time Alt. Az. Time Alt. Az.
10 Aug -2.5 19:26:25 10° NNW 19:28:37 29° NNE 19:28:37 29° NNE visible
11 Aug -1.9 18:39:45 10° NNE 18:41:56 16° NE 18:43:39 12° E visible
11 Aug -0.3 20:16:23 10° W 20:16:39 11° W 20:16:39 11° W visible
12 Aug -2.4 19:27:50 10° WNW 19:30:56 34° SW 19:31:47 29° SSW visible
13 Aug -3.8 18:40:00 10° NW 18:43:20 89° WSW 18:46:42 10° SE visible
15 Aug -1.5 05:29:14 10° S 05:31:59 23° SE 05:34:44 10° ENE visible
15 Aug -0.9 18:42:34 10° W 18:44:42 16° SW 18:46:52 10° SSW visible
16 Aug -0.7 04:43:23 10° SE 04:44:20 11° SE 04:45:18 10° ESE visible
